When you browse on this site, cookies collect data to enhance your experience and personalize the content and advertising you see.
Visit our Privacy Policy to learn more. By continuing to use the site, you agree to this use of cookies and data.
  • In Hungary
  • List of Countries
  • For 7 days
  • Water Temperature
  • Weather Map
  • News
  • Weather Widgets
  • user-avatar
    Login

    Hourly Weather Limanskiy

    Today, 20 October, Sunday

    Time Temperature Precipitation Wind Pressure Humidity
    00:00 +13°C° 0 mm 2 mps 765 mmHg 72%
    01:00 +13°C° 0 mm 2 mps 765 mmHg 73%
    02:00 +13°C° 0 mm 2 mps 765 mmHg 74%
    03:00 +12°C° 0 mm 2 mps 765 mmHg 79%
    04:00 +12°C° 0 mm 2 mps 765 mmHg 79%
    05:00 +12°C° 0 mm 2 mps 766 mmHg 80%
    06:00 +10°C° 0 mm 2 mps 766 mmHg 81%
    07:00 +12°C° 0 mm 3 mps 766 mmHg 74%
    08:00 +13°C° 0 mm 3 mps 766 mmHg 68%
    09:00 +16°C° 0 mm 3 mps 766 mmHg 60%
    10:00 +18°C° 0 mm 3 mps 766 mmHg 55%
    11:00 +19°C° 0 mm 3 mps 766 mmHg 49%
    12:00 +21°C° 0 mm 4 mps 766 mmHg 44%
    13:00 +22°C° 0 mm 3 mps 766 mmHg 42%
    14:00 +22°C° 0 mm 3 mps 766 mmHg 41%
    15:00 +24°C° 0 mm 3 mps 766 mmHg 40%
    16:00 +21°C° 0 mm 3 mps 766 mmHg 46%
    17:00 +19°C° 0 mm 3 mps 766 mmHg 52%
    18:00 +17°C° 0 mm 3 mps 766 mmHg 58%
    19:00 +17°C° 0 mm 3 mps 766 mmHg 61%
    20:00 +16°C° 0 mm 3 mps 766 mmHg 63%
    21:00 +14°C° 0 mm 3 mps 767 mmHg 66%
    22:00 +14°C° 0 mm 3 mps 767 mmHg 67%
    23:00 +13°C° 0 mm 3 mps 767 mmHg 69%

    Tomorrow, 21 October, Monday

    Time Temperature Precipitation Wind Pressure Humidity
    00:00 +13°C° 0 mm 3 mps 767 mmHg 70%
    01:00 +13°C° 0 mm 3 mps 767 mmHg 73%
    02:00 +12°C° 0 mm 3 mps 767 mmHg 75%
    03:00 +12°C° 0 mm 3 mps 767 mmHg 78%
    04:00 +11°C° 0 mm 3 mps 767 mmHg 80%
    05:00 +11°C° 0 mm 3 mps 767 mmHg 82%
    06:00 +11°C° 0 mm 3 mps 767 mmHg 84%
    07:00 +12°C° 0 mm 3 mps 768 mmHg 76%
    08:00 +14°C° 0 mm 3 mps 768 mmHg 68%
    09:00 +15°C° 0 mm 4 mps 768 mmHg 60%
    10:00 +18°C° 0 mm 4 mps 768 mmHg 55%
    11:00 +19°C° 0 mm 4 mps 768 mmHg 49%
    12:00 +21°C° 0 mm 4 mps 768 mmHg 44%
    13:00 +21°C° 0 mm 4 mps 768 mmHg 43%
    14:00 +21°C° 0 mm 4 mps 767 mmHg 41%
    15:00 +22°C° 0 mm 4 mps 767 mmHg 39%
    16:00 +20°C° 0 mm 3 mps 767 mmHg 45%
    17:00 +18°C° 0 mm 3 mps 767 mmHg 50%
    18:00 +17°C° 0 mm 3 mps 767 mmHg 55%
    19:00 +16°C° 0 mm 3 mps 767 mmHg 57%
    20:00 +15°C° 0 mm 2 mps 767 mmHg 60%
    21:00 +14°C° 0 mm 2 mps 767 mmHg 63%
    22:00 +14°C° 0 mm 2 mps 767 mmHg 64%
    23:00 +13°C° 0 mm 2 mps 767 mmHg 66%

    Day after tomorrow, 22 October, Tuesday

    Time Temperature Precipitation Wind Pressure Humidity
    00:00 +13°C° 0 mm 2 mps 766 mmHg 68%
    01:00 +13°C° 0 mm 2 mps 766 mmHg 70%
    02:00 +12°C° 0 mm 1 mps 766 mmHg 72%
    03:00 +12°C° 0 mm 1 mps 766 mmHg 74%
    04:00 +12°C° 0 mm 1 mps 766 mmHg 75%
    05:00 +11°C° 0 mm 1 mps 766 mmHg 76%
    06:00 +11°C° 0 mm 1 mps 766 mmHg 77%
    07:00 +13°C° 0 mm 1 mps 766 mmHg 72%
    08:00 +14°C° 0 mm 1 mps 767 mmHg 67%
    09:00 +15°C° 0 mm 1 mps 767 mmHg 61%
    10:00 +18°C° 0 mm 1 mps 767 mmHg 56%
    11:00 +19°C° 0 mm 1 mps 766 mmHg 50%
    12:00 +21°C° 0 mm 1 mps 766 mmHg 45%
    13:00 +21°C° 0 mm 1 mps 766 mmHg 43%
    14:00 +21°C° 0 mm 1 mps 766 mmHg 42%
    15:00 +21°C° 0 mm 1 mps 766 mmHg 40%
    16:00 +20°C° 0 mm 1 mps 766 mmHg 44%
    17:00 +19°C° 0 mm 1 mps 766 mmHg 48%
    18:00 +16°C° 0 mm 1 mps 766 mmHg 52%
    19:00 +16°C° 0 mm 1 mps 766 mmHg 54%
    20:00 +15°C° 0 mm 1 mps 766 mmHg 56%
    21:00 +15°C° 0 mm 1 mps 766 mmHg 58%
    22:00 +14°C° 0 mm 1 mps 766 mmHg 59%
    23:00 +14°C° 0 mm 1 mps 766 mmHg 61%

    23 October, Wednesday

    Time Temperature Precipitation Wind Pressure Humidity
    00:00 +13°C° 0 mm 1 mps 766 mmHg 63%
    01:00 +13°C° 0 mm 1 mps 766 mmHg 64%
    02:00 +12°C° 0 mm 0 mps 766 mmHg 64%
    03:00 +11°C° 0 mm 0 mps 766 mmHg 65%
    04:00 +11°C° 0 mm 0 mps 766 mmHg 66%
    05:00 +12°C° 0 mm 1 mps 766 mmHg 68%
    06:00 +12°C° 0 mm 1 mps 766 mmHg 69%
    07:00 +13°C° 0 mm 1 mps 766 mmHg 64%
    08:00 +14°C° 0 mm 1 mps 766 mmHg 60%
    09:00 +16°C° 0 mm 1 mps 767 mmHg 55%
    10:00 +17°C° 0 mm 2 mps 766 mmHg 51%
    11:00 +19°C° 0 mm 2 mps 766 mmHg 47%
    12:00 +20°C° 0 mm 2 mps 766 mmHg 43%
    13:00 +20°C° 0 mm 2 mps 766 mmHg 43%
    14:00 +21°C° 0 mm 2 mps 766 mmHg 42%
    15:00 +21°C° 0 mm 2 mps 766 mmHg 42%
    16:00 +19°C° 0 mm 2 mps 766 mmHg 47%
    17:00 +18°C° 0 mm 2 mps 765 mmHg 53%
    18:00 +16°C° 0 mm 2 mps 765 mmHg 58%
    19:00 +15°C° 0 mm 2 mps 765 mmHg 63%
    20:00 +15°C° 0 mm 2 mps 766 mmHg 67%
    21:00 +14°C° 0 mm 2 mps 766 mmHg 71%
    22:00 +14°C° 0 mm 2 mps 766 mmHg 72%
    23:00 +13°C° 0 mm 2 mps 765 mmHg 74%

    24 October, Thursday

    Time Temperature Precipitation Wind Pressure Humidity
    00:00 +13°C° 0 mm 2 mps 765 mmHg 75%
    01:00 +12°C° 0 mm 2 mps 765 mmHg 75%
    02:00 +12°C° 0 mm 2 mps 765 mmHg 74%
    03:00 +12°C° 0 mm 2 mps 765 mmHg 74%
    04:00 +10°C° 0 mm 2 mps 765 mmHg 73%
    05:00 +10°C° 0 mm 2 mps 765 mmHg 72%
    06:00 +10°C° 0 mm 2 mps 765 mmHg 71%
    07:00 +12°C° 0 mm 2 mps 765 mmHg 65%
    08:00 +13°C° 0 mm 2 mps 765 mmHg 59%
    09:00 +14°C° 0 mm 3 mps 766 mmHg 53%
    10:00 +16°C° 0 mm 3 mps 765 mmHg 48%
    11:00 +18°C° 0 mm 4 mps 765 mmHg 42%
    12:00 +20°C° 0 mm 4 mps 765 mmHg 37%
    13:00 +20°C° 0 mm 4 mps 764 mmHg 37%
    14:00 +20°C° 0 mm 4 mps 764 mmHg 37%
    15:00 +20°C° 0 mm 4 mps 764 mmHg 37%
    16:00 +19°C° 0 mm 4 mps 764 mmHg 43%
    17:00 +17°C° 0 mm 3 mps 764 mmHg 48%
    18:00 +16°C° 0 mm 3 mps 764 mmHg 54%
    19:00 +14°C° 0 mm 3 mps 764 mmHg 56%
    20:00 +13°C° 0 mm 3 mps 764 mmHg 59%
    21:00 +13°C° 0 mm 3 mps 764 mmHg 61%
    22:00 +12°C° 0 mm 3 mps 764 mmHg 64%
    23:00 +12°C° 0 mm 3 mps 764 mmHg 66%

    25 October, Friday

    Time Temperature Precipitation Wind Pressure Humidity
    00:00 +11°C° 0 mm 3 mps 763 mmHg 68%
    01:00 +11°C° 0 mm 3 mps 763 mmHg 70%
    02:00 +11°C° 0 mm 4 mps 763 mmHg 71%
    03:00 +10°C° 0 mm 4 mps 763 mmHg 73%
    04:00 +10°C° 0 mm 4 mps 763 mmHg 73%
    05:00 +10°C° 0 mm 4 mps 763 mmHg 74%
    06:00 +8°C° 0 mm 4 mps 763 mmHg 74%
    07:00 +10°C° 0 mm 4 mps 763 mmHg 69%
    08:00 +12°C° 0 mm 5 mps 763 mmHg 63%
    09:00 +13°C° 0 mm 5 mps 763 mmHg 57%
    10:00 +14°C° 0 mm 5 mps 763 mmHg 52%
    11:00 +15°C° 0 mm 6 mps 763 mmHg 48%
    12:00 +17°C° 0 mm 6 mps 763 mmHg 43%
    13:00 +17°C° 0 mm 6 mps 763 mmHg 47%
    14:00 +17°C° 0 mm 6 mps 763 mmHg 51%
    15:00 +17°C° 0 mm 6 mps 763 mmHg 56%
    16:00 +17°C° 0 mm 5 mps 762 mmHg 59%
    17:00 +16°C° 0 mm 5 mps 762 mmHg 62%
    18:00 +17°C° 0 mm 4 mps 762 mmHg 64%
    19:00 +17°C° 0 mm 4 mps 762 mmHg 61%
    20:00 +17°C° 0 mm 4 mps 762 mmHg 57%
    21:00 +16°C° 0 mm 5 mps 762 mmHg 53%
    22:00 +16°C° 0 mm 5 mps 762 mmHg 53%
    23:00 +16°C° 0 mm 5 mps 762 mmHg 53%
    Show more